TimeEDT,TemperatureF,Dew PointF,Humidity,Sea Level PressureIn,VisibilityMPH,Wind Direction,Wind SpeedMPH,Gust SpeedMPH,PrecipitationIn,Events,Conditions,WindDirDegrees,DateUTC
12:54 AM,64.0,50.0,60,29.93,10.0,SSW,9.2,-,N/A,,Overcast,200,2012-09-21 04:54:00
1:54 AM,64.0,51.1,63,29.93,10.0,South,8.1,-,N/A,,Overcast,190,2012-09-21 05:54:00
2:54 AM,64.0,51.1,63,29.93,10.0,SSW,8.1,-,N/A,,Overcast,200,2012-09-21 06:54:00
3:54 AM,64.0,52.0,65,29.92,10.0,South,6.9,-,N/A,,Overcast,190,2012-09-21 07:54:00
4:54 AM,62.6,51.8,68,29.92,10.0,SSE,5.8,-,N/A,,Overcast,160,2012-09-21 08:54:00
5:54 AM,63.0,52.0,67,29.93,10.0,Calm,Calm,-,N/A,,Overcast,0,2012-09-21 09:54:00
6:54 AM,62.1,52.0,70,29.94,10.0,SSW,3.5,-,N/A,,Overcast,200,2012-09-21 10:54:00
7:54 AM,62.1,53.1,72,29.94,10.0,SSW,5.8,-,N/A,,Overcast,200,2012-09-21 11:54:00
8:54 AM,62.1,54.0,75,29.94,10.0,SSW,4.6,-,N/A,,Overcast,210,2012-09-21 12:54:00
9:54 AM,62.1,55.0,78,29.94,10.0,SSW,3.5,-,N/A,,Overcast,210,2012-09-21 13:54:00
10:54 AM,63.0,55.9,78,29.94,10.0,South,4.6,-,0.00,,Overcast,170,2012-09-21 14:54:00
11:54 AM,64.9,57.0,75,29.93,10.0,South,9.2,-,N/A,,Overcast,190,2012-09-21 15:54:00
12:54 PM,64.9,57.0,75,29.91,10.0,SSW,8.1,-,N/A,,Overcast,200,2012-09-21 16:54:00
1:54 PM,69.1,59.0,70,29.90,10.0,SSW,10.4,16.1,N/A,,Mostly Cloudy,200,2012-09-21 17:54:00
2:54 PM,71.1,57.9,63,29.88,10.0,SSW,8.1,-,N/A,,Mostly Cloudy,200,2012-09-21 18:54:00
3:23 PM,71.6,57.2,60,29.90,10.0,WSW,12.7,18.4,N/A,Thunderstorm,Thunderstorm,240,2012-09-21 19:23:00
3:54 PM,62.1,57.0,84,29.91,10.0,NW,5.8,-,0.14,Rain-Thunderstorm,Light Thunderstorms and Rain,320,2012-09-21 19:54:00
4:07 PM,62.6,57.2,82,29.91,10.0,Calm,Calm,-,0.00,,Overcast,0,2012-09-21 20:07:00
4:54 PM,63.0,57.9,84,29.91,10.0,NNE,3.5,-,0.00,,Mostly Cloudy,20,2012-09-21 20:54:00
5:54 PM,64.9,57.0,75,29.91,10.0,Calm,Calm,-,N/A,,Mostly Cloudy,0,2012-09-21 21:54:00
6:54 PM,63.0,57.0,81,29.92,10.0,Calm,Calm,-,N/A,,Mostly Cloudy,0,2012-09-21 22:54:00
7:54 PM,60.1,57.0,90,29.92,10.0,Calm,Calm,-,N/A,,Mostly Cloudy,0,2012-09-21 23:54:00
8:54 PM,60.1,57.0,90,29.91,10.0,Calm,Calm,-,N/A,,Mostly Cloudy,0,2012-09-22 00:54:00
9:54 PM,57.9,55.9,93,29.91,7.0,Calm,Calm,-,N/A,,Overcast,0,2012-09-22 01:54:00
10:54 PM,59.0,55.9,90,29.89,10.0,Calm,Calm,-,N/A,,Mostly Cloudy,0,2012-09-22 02:54:00
11:54 PM,60.1,55.9,86,29.86,10.0,SE,3.5,-,N/A,,Overcast,130,2012-09-22 03:54:00